| time (UTC) | temp F | wind direction | speed knots | gust knots | rain 1hr in | rain 24hr in | rain mn in | humidity % | barometer mb |
| 20260507143504 | 61 | 149 | 5.2 | 13.9 | 0.00 | 0.00 | 0.00 | 57 | 1014.8 |
| 20260507142505 | 60 | 145 | 5.2 | 10.4 | 0.00 | 0.00 | 0.00 | 58 | 1014.9 |
| 20260507142004 | 61 | 149 | 5.2 | 11.3 | 0.00 | 0.00 | 0.00 | 57 | 1015.0 |
| 20260507141004 | 62 | 153 | 6.1 | 12.2 | 0.00 | 0.00 | 0.00 | 55 | 1015.0 |
| 20260507135505 | 63 | 145 | 8.7 | 13.9 | 0.00 | 0.00 | 0.00 | 54 | 1015.0 |
| 20260507135004 | 64 | 157 | 6.1 | 10.4 | 0.00 | 0.00 | 0.00 | 54 | 1015.0 |
| 20260507134005 | 64 | 146 | 5.2 | 14.8 | 0.00 | 0.00 | 0.00 | 52 | 1014.9 |
| 20260507133504 | 64 | 142 | 6.1 | 14.8 | 0.00 | 0.00 | 0.00 | 54 | 1014.9 |
| 20260507132504 | 64 | 173 | 6.1 | 11.3 | 0.00 | 0.00 | 0.00 | 54 | 1015.0 |
| 20260507132004 | 64 | 154 | 6.1 | 12.2 | 0.00 | 0.00 | 0.00 | 56 | 1015.0 |
| 20260507130505 | 63 | 194 | 7.0 | 11.3 | 0.00 | 0.00 | 0.00 | 57 | 1015.1 |
| 20260507130005 | 62 | 182 | 5.2 | 10.4 | 0.00 | 0.00 | 0.00 | 59 | 1015.0 |
| 20260507125505 | 62 | 191 | 5.2 | 14.8 | 0.00 | 0.00 | 0.00 | 57 | 1015.1 |
| 20260507124504 | 62 | 166 | 5.2 | 13.0 | 0.00 | 0.00 | 0.00 | 58 | 1015.1 |
| 20260507123505 | 61 | 143 | 5.2 | 8.7 | 0.00 | 0.00 | 0.00 | 57 | 1015.1 |
| 20260507123005 | 62 | 167 | 4.3 | 8.7 | 0.00 | 0.00 | 0.00 | 56 | 1015.1 |
| 20260507122504 | 62 | 197 | 4.3 | 8.7 | 0.00 | 0.00 | 0.00 | 56 | 1015.1 |
| 20260507122005 | 62 | 144 | 5.2 | 8.7 | 0.00 | 0.00 | 0.00 | 55 | 1015.2 |
| 20260507121505 | 62 | 170 | 4.3 | 8.7 | 0.00 | 0.00 | 0.00 | 55 | 1015.2 |
| 20260507121005 | 63 | 176 | 5.2 | 12.2 | 0.00 | 0.00 | 0.00 | 54 | 1015.2 |
| 20260507120504 | 63 | 157 | 5.2 | 12.2 | 0.00 | 0.00 | 0.00 | 55 | 1015.3 |
| 20260507120006 | 63 | 152 | 4.3 | 11.3 | 0.00 | 0.00 | 0.00 | 57 | 1015.3 |
| 20260507115505 | 63 | 207 | 5.2 | 11.3 | 0.00 | 0.00 | 0.00 | 57 | 1015.3 |
| 20260507115005 | 63 | 143 | 7.8 | 11.3 | 0.00 | 0.00 | 0.00 | 54 | 1015.3 |
| 20260507114004 | 63 | 181 | 7.0 | 11.3 | 0.00 | 0.00 | 0.00 | 55 | 1015.3 |
| 20260507113505 | 62 | 168 | 6.1 | 11.3 | 0.00 | 0.00 | 0.00 | 56 | 1015.3 |
| 20260507112504 | 62 | 155 | 7.0 | 10.4 | 0.00 | 0.00 | 0.00 | 55 | 1015.3 |
| 20260507110504 | 62 | 159 | 5.2 | 10.4 | 0.00 | 0.00 | 0.00 | 60 | 1015.4 |
| 20260507110005 | 61 | 178 | 5.2 | 10.4 | 0.00 | 0.00 | 0.00 | 59 | 1015.5 |
| 20260507105005 | 61 | 205 | 4.3 | 10.4 | 0.00 | 0.00 | 0.00 | 59 | 1015.5 |
| 20260507104505 | 60 | 189 | 4.3 | 10.4 | 0.00 | 0.00 | 0.00 | 61 | 1015.5 |
| 20260507103504 | 59 | 186 | 5.2 | 10.4 | 0.00 | 0.00 | 0.00 | 60 | 1015.5 |
| 20260507103005 | 59 | 178 | 6.1 | 11.3 | 0.00 | 0.00 | 0.00 | 59 | 1015.4 |
| 20260507102505 | 59 | 165 | 6.1 | 11.3 | 0.00 | 0.00 | 0.00 | 60 | 1015.4 |
| 20260507101504 | 60 | 148 | 6.1 | 10.4 | 0.00 | 0.00 | 0.00 | 56 | 1015.4 |
| 20260507100005 | 62 | 158 | 6.1 | 13.0 | 0.00 | 0.00 | 0.00 | 58 | 1015.5 |
| 20260507095004 | 62 | 150 | 4.3 | 10.4 | 0.00 | 0.00 | 0.00 | 61 | 1015.4 |
| 20260507094505 | 61 | 173 | 5.2 | 10.4 | 0.00 | 0.00 | 0.00 | 63 | 1015.4 |
| 20260507092504 | 59 | 147 | 6.1 | 11.3 | 0.00 | 0.00 | 0.00 | 65 | 1015.5 |
| 20260507092004 | 59 | 134 | 5.2 | 11.3 | 0.00 | 0.00 | 0.00 | 69 | 1015.4 |
| 20260507091504 | 59 | 179 | 5.2 | 11.3 | 0.00 | 0.00 | 0.00 | 69 | 1015.4 |
| 20260507091004 | 58 | 170 | 4.3 | 10.4 | 0.00 | 0.00 | 0.00 | 70 | 1015.5 |
| 20260507090504 | 58 | 151 | 4.3 | 10.4 | 0.00 | 0.00 | 0.00 | 70 | 1015.5 |
| 20260507085504 | 58 | 144 | 4.3 | 7.8 | 0.00 | 0.00 | 0.00 | 71 | 1015.6 |
| 20260507084005 | 57 | 152 | 2.6 | 7.8 | 0.00 | 0.00 | 0.00 | 74 | 1015.6 |
| 20260507082505 | 55 | 132 | 2.6 | 7.0 | 0.00 | 0.00 | 0.00 | 77 | 1015.6 |
| 20260507081004 | 54 | 179 | 1.7 | 6.1 | 0.00 | 0.00 | 0.00 | 80 | 1015.6 |
| 20260507075504 | 53 | 147 | 1.7 | 5.2 | 0.00 | 0.00 | 0.00 | 81 | 1015.5 |
| 20260507075005 | 53 | 87 | 2.6 | 5.2 | 0.00 | 0.00 | 0.00 | 80 | 1015.5 |
| 20260507074005 | 52 | 87 | 2.6 | 6.1 | 0.00 | 0.00 | 0.00 | 80 | 1015.4 |
| 20260507073504 | 52 | 86 | 2.6 | 6.1 | 0.00 | 0.00 | 0.00 | 80 | 1015.4 |
| 20260507072504 | 52 | 133 | 2.6 | 5.2 | 0.00 | 0.00 | 0.00 | 80 | 1015.4 |
| 20260507070009 | 51 | 123 | 2.6 | 6.1 | 0.00 | 0.00 | 0.00 | 80 | 1015.3 |
| 20260507064505 | 50 | 135 | 1.7 | 5.2 | 0.00 | 0.00 | 0.00 | 82 | 1015.2 |
| 20260507064005 | 50 | 114 | 1.7 | 5.2 | 0.00 | 0.00 | 0.00 | 82 | 1015.2 |
| 20260507063505 | 49 | 131 | 0.9 | 2.6 | 0.00 | 0.00 | 0.00 | 83 | 1015.2 |
| 20260507062005 | 49 | 139 | 1.7 | 2.6 | 0.00 | 0.00 | 0.00 | 82 | 1015.4 |
| 20260507061504 | 48 | 146 | 1.7 | 2.6 | 0.00 | 0.00 | 0.00 | 82 | 1015.3 |
| 20260507061004 | 48 | 146 | 1.7 | 2.6 | 0.00 | 0.00 | 0.00 | 82 | 1015.3 |
| 20260507055504 | 48 | 123 | 0.9 | 4.3 | 0.00 | 0.00 | 0.00 | 82 | 1015.1 |
| 20260507052004 | 48 | 107 | 0.9 | 1.7 | 0.00 | 0.00 | 0.00 | 80 | 1014.8 |
| 20260507050505 | 48 | 117 | 1.7 | 2.6 | 0.00 | 0.00 | 0.00 | 80 | 1014.9 |
| 20260507050006 | 48 | 100 | 0.9 | 2.6 | 0.00 | 0.00 | 0.00 | 79 | 1014.8 |
| 20260507043504 | 48 | 151 | 1.7 | 6.1 | 0.00 | 0.00 | 0.00 | 78 | 1014.7 |
| 20260507042505 | 48 | 120 | 1.7 | 5.2 | 0.00 | 0.00 | 0.00 | 78 | 1014.6 |
| 20260507042004 | 49 | 77 | 1.7 | 5.2 | 0.00 | 0.00 | 0.00 | 77 | 1014.7 |
| 20260507041504 | 49 | 97 | 1.7 | 5.2 | 0.00 | 0.00 | 0.00 | 77 | 1014.7 |
| 20260507041004 | 49 | 105 | 1.7 | 5.2 | 0.00 | 0.00 | 0.00 | 77 | 1014.7 |
| 20260507035504 | 49 | 90 | 2.6 | 6.1 | 0.00 | 0.00 | 0.00 | 76 | 1014.7 |
| 20260507035004 | 49 | 98 | 0.9 | 5.2 | 0.00 | 0.00 | 0.00 | 76 | 1014.7 |
| 20260507033505 | 49 | 143 | 0.9 | 2.6 | 0.00 | 0.00 | 0.00 | 75 | 1014.6 |
| 20260507032504 | 49 | 117 | 0.9 | 2.6 | 0.00 | 0.00 | 0.00 | 75 | 1014.6 |
| 20260507032004 | 49 | 135 | 1.7 | 4.3 | 0.00 | 0.00 | 0.00 | 74 | 1014.7 |
| 20260507031505 | 49 | 118 | 0.9 | 4.3 | 0.00 | 0.00 | 0.00 | 74 | 1014.7 |
| 20260507030504 | 49 | 79 | 1.7 | 4.3 | 0.00 | 0.00 | 0.00 | 74 | 1014.6 |
| 20260507025005 | 49 | 96 | 0.9 | 6.1 | 0.00 | 0.00 | 0.00 | 73 | 1014.7 |
| 20260507023005 | 49 | 115 | 0.9 | 4.3 | 0.00 | 0.00 | 0.00 | 73 | 1014.6 |
| 20260507022505 | 49 | 98 | 1.7 | 4.3 | 0.00 | 0.00 | 0.00 | 73 | 1014.6 |
| 20260507022004 | 49 | 116 | 0.9 | 5.2 | 0.00 | 0.00 | 0.00 | 73 | 1014.6 |
| 20260507021005 | 50 | 115 | 1.7 | 4.3 | 0.00 | 0.00 | 0.00 | 72 | 1014.6 |
| 20260507015505 | 50 | 95 | 0.9 | 4.3 | 0.00 | 0.00 | 0.00 | 72 | 1014.6 |
| 20260507015005 | 50 | 93 | 1.7 | 2.6 | 0.00 | 0.00 | 0.00 | 72 | 1014.7 |
| 20260507014504 | 50 | 81 | 1.7 | 2.6 | 0.00 | 0.00 | 0.00 | 72 | 1014.6 |
| 20260507013505 | 50 | 74 | 0.0 | 4.3 | 0.00 | 0.00 | 0.00 | 72 | 1014.7 |
| 20260507013005 | 50 | 89 | 1.7 | 6.1 | 0.00 | 0.00 | 0.00 | 71 | 1014.6 |
| 20260507012505 | 50 | 111 | 1.7 | 6.1 | 0.00 | 0.00 | 0.00 | 71 | 1014.6 |
| 20260507011005 | 51 | 79 | 0.9 | 2.6 | 0.00 | 0.00 | 0.00 | 71 | 1014.6 |
| 20260507010005 | 51 | 78 | 0.9 | 4.3 | 0.00 | 0.00 | 0.00 | 71 | 1014.6 |
| 20260507005505 | 51 | 83 | 0.9 | 4.3 | 0.00 | 0.00 | 0.00 | 71 | 1014.5 |
| 20260507004505 | 51 | 121 | 0.0 | 2.6 | 0.00 | 0.00 | 0.00 | 71 | 1014.6 |
| 20260507002505 | 51 | 117 | 0.9 | 4.3 | 0.00 | 0.00 | 0.00 | 71 | 1014.7 |
| 20260507002004 | 51 | 74 | 0.9 | 2.6 | 0.00 | 0.00 | 0.00 | 72 | 1014.7 |
| 20260507001505 | 51 | 72 | 0.9 | 2.6 | 0.00 | 0.00 | 0.00 | 72 | 1014.7 |
| 20260507001005 | 50 | 77 | 1.7 | 2.6 | 0.00 | 0.00 | 0.00 | 72 | 1014.7 |
| 20260506233505 | 50 | 126 | 0.0 | 0.0 | 0.00 | 0.00 | 0.00 | 79 | 1014.7 |
| 20260506232505 | 50 | 126 | 0.0 | 0.9 | 0.00 | 0.00 | 0.00 | 80 | 1014.7 |
| 20260506231504 | 50 | 126 | 0.0 | 0.9 | 0.00 | 0.00 | 0.00 | 80 | 1014.7 |
| 20260506231004 | 50 | 126 | 0.0 | 0.9 | 0.00 | 0.00 | 0.00 | 80 | 1014.7 |
| 20260506230504 | 50 | 126 | 0.0 | 0.9 | 0.00 | 0.00 | 0.00 | 81 | 1014.7 |
| 20260506230004 | 50 | 126 | 0.0 | 0.9 | 0.00 | 0.00 | 0.00 | 82 | 1014.8 |
| 20260506225504 | 50 | 126 | 0.0 | 0.0 | 0.00 | 0.00 | 0.00 | 81 | 1014.7 |
| 20260506224504 | 50 | 126 | 0.0 | 0.0 | 0.00 | 0.00 | 0.00 | 81 | 1014.8 |
| 20260506223505 | 50 | 126 | 0.0 | 0.0 | 0.00 | 0.00 | 0.00 | 80 | 1014.6 |
| 20260506221504 | 51 | 126 | 0.0 | 0.0 | 0.00 | 0.00 | 0.00 | 79 | 1014.6 |
| 20260506220504 | 51 | 126 | 0.0 | 0.9 | 0.00 | 0.00 | 0.00 | 78 | 1014.6 |
| 20260506215504 | 51 | 126 | 0.0 | 1.7 | 0.00 | 0.00 | 0.00 | 77 | 1014.5 |
| 20260506214505 | 52 | 126 | 0.0 | 2.6 | 0.00 | 0.00 | 0.00 | 76 | 1014.5 |
| 20260506214005 | 52 | 127 | 0.0 | 1.7 | 0.00 | 0.00 | 0.00 | 76 | 1014.5 |
| 20260506213005 | 52 | 127 | 0.0 | 1.7 | 0.00 | 0.00 | 0.00 | 75 | 1014.6 |
| 20260506211005 | 53 | 138 | 0.9 | 2.6 | 0.00 | 0.00 | 0.00 | 75 | 1014.4 |
| 20260506210504 | 54 | 144 | 0.9 | 2.6 | 0.00 | 0.00 | 0.00 | 74 | 1014.4 |
| 20260506205504 | 54 | 144 | 0.9 | 1.7 | 0.00 | 0.00 | 0.00 | 74 | 1014.3 |
| 20260506203504 | 54 | 144 | 0.9 | 1.7 | 0.00 | 0.00 | 0.00 | 73 | 1014.2 |
| 20260506203005 | 55 | 144 | 0.0 | 1.7 | 0.00 | 0.00 | 0.00 | 72 | 1014.2 |
| 20260506202505 | 55 | 144 | 0.0 | 1.7 | 0.00 | 0.00 | 0.00 | 72 | 1014.2 |
| 20260506202004 | 55 | 144 | 0.9 | 0.9 | 0.00 | 0.00 | 0.00 | 71 | 1014.1 |
| 20260506201505 | 55 | 144 | 0.0 | 1.7 | 0.00 | 0.00 | 0.00 | 70 | 1014.1 |
| 20260506200504 | 55 | 144 | 0.0 | 2.6 | 0.00 | 0.00 | 0.00 | 69 | 1014.1 |
| 20260506195504 | 55 | 184 | 0.9 | 2.6 | 0.00 | 0.00 | 0.00 | 66 | 1013.9 |
| 20260506194004 | 56 | 149 | 1.7 | 2.6 | 0.00 | 0.00 | 0.00 | 60 | 1013.8 |
| 20260506193005 | 56 | 39 | 0.0 | 2.6 | 0.00 | 0.00 | 0.00 | 56 | 1013.8 |
| 20260506185504 | 57 | 23 | 1.7 | 4.3 | 0.00 | 0.00 | 0.00 | 52 | 1013.6 |
| 20260506184505 | 58 | 12 | 1.7 | 2.6 | 0.00 | 0.00 | 0.00 | 52 | 1013.6 |
| 20260506183504 | 58 | 22 | 0.9 | 2.6 | 0.00 | 0.00 | 0.00 | 53 | 1013.5 |
| 20260506182504 | 58 | 338 | 1.7 | 2.6 | 0.00 | 0.00 | 0.00 | 52 | 1013.5 |
| 20260506182005 | 58 | 22 | 1.7 | 2.6 | 0.00 | 0.00 | 0.00 | 52 | 1013.5 |
| 20260506180505 | 58 | 333 | 1.7 | 2.6 | 0.00 | 0.00 | 0.00 | 51 | 1013.4 |
| 20260506180006 | 58 | 48 | 0.9 | 2.6 | 0.00 | 0.00 | 0.00 | 50 | 1013.3 |
| 20260506175505 | 58 | 8 | 1.7 | 2.6 | 0.00 | 0.00 | 0.00 | 51 | 1013.3 |
| 20260506175005 | 58 | 24 | 0.9 | 2.6 | 0.00 | 0.00 | 0.00 | 51 | 1013.3 |
| 20260506174004 | 59 | 320 | 0.9 | 2.6 | 0.00 | 0.00 | 0.00 | 49 | 1013.2 |
| 20260506173504 | 59 | 358 | 1.7 | 4.3 | 0.00 | 0.00 | 0.00 | 49 | 1013.1 |
| 20260506173005 | 59 | 38 | 1.7 | 4.3 | 0.00 | 0.00 | 0.00 | 48 | 1013.2 |
| 20260506171504 | 59 | 3 | 1.7 | 4.3 | 0.00 | 0.00 | 0.00 | 48 | 1013.1 |
| 20260506164004 | 60 | 5 | 1.7 | 7.0 | 0.00 | 0.00 | 0.00 | 48 | 1013.1 |
| 20260506163504 | 60 | 10 | 2.6 | 7.0 | 0.00 | 0.00 | 0.00 | 47 | 1013.2 |
| 20260506163005 | 60 | 340 | 1.7 | 4.3 | 0.00 | 0.00 | 0.00 | 47 | 1013.1 |
| 20260506161505 | 60 | 5 | 0.9 | 4.3 | 0.00 | 0.00 | 0.00 | 48 | 1013.1 |
| 20260506161005 | 60 | 333 | 1.7 | 4.3 | 0.00 | 0.00 | 0.00 | 46 | 1013.1 |
| 20260506160504 | 60 | 34 | 1.7 | 6.1 | 0.00 | 0.00 | 0.00 | 47 | 1013.1 |
| 20260506160005 | 60 | 21 | 2.6 | 6.1 | 0.00 | 0.00 | 0.00 | 47 | 1013.1 |
| 20260506155505 | 60 | 2 | 1.7 | 5.2 | 0.00 | 0.00 | 0.00 | 47 | 1013.1 |
| 20260506155005 | 60 | 343 | 1.7 | 5.2 | 0.00 | 0.00 | 0.00 | 48 | 1013.1 |
| 20260506153505 | 60 | 6 | 2.6 | 4.3 | 0.00 | 0.00 | 0.00 | 47 | 1013.2 |
| 20260506150505 | 61 | 16 | 2.6 | 7.0 | 0.00 | 0.00 | 0.00 | 46 | 1013.2 |
| 20260506150005 | 61 | 331 | 2.6 | 6.1 | 0.00 | 0.00 | 0.00 | 48 | 1013.2 |
| 20260506145004 | 61 | 30 | 4.3 | 7.0 | 0.00 | 0.00 | 0.00 | 46 | 1013.3 |
| 20260506144504 | 61 | 303 | 1.7 | 7.0 | 0.00 | 0.00 | 0.00 | 47 | 1013.3 |